Location: Sommers-Bausch Observatory
(40.0037°N, 105.2635°W)
Time: 08:25:42
(UTC-07:00)

Daily predictions for brighter satellites

Satellite Brightness Start Highest point End
(mag) Time Altitude Azimuth Time Altitude Azimuth Time Altitude Azimuth
Cosmos 1833 Rocket 3.5 17:01:09 10° N 17:05:59 28° ENE 17:10:46 10° ESE
SL-27 R/B 4.2 17:05:49 10° NNW 17:09:16 39° WSW 17:12:38 10° S
NOSS 2-1 (D) 4.3 17:06:02 10° S 17:09:21 28° ESE 17:12:54 10° NE
NOSS 2-1 (C) 4.4 17:06:44 10° S 17:10:03 28° ESE 17:13:36 10° NE
IRS-1A Rocket 4.4 17:05:15 10° SSE 17:10:45 82° WSW 17:16:19 10° NNW
Tiangong 1 0.9 17:07:55 10° WSW 17:10:58 84° NNW 17:14:00 10° ENE
IDEFIX/ARIANE 42P 2.7 17:07:33 10° SSE 17:12:36 55° ENE 17:17:39 10° N
Cosmos 2082 Rocket 2.7 17:08:08 10° N 17:13:22 37° ENE 17:18:36 10° SE
Cosmos 1500 3.6 17:11:29 10° N 17:15:08 40° E 17:18:47 10° SSE
Cosmos 1743 4.0 17:12:23 10° NNE 17:15:18 20° ENE 17:18:11 10° ESE
Thor Agena Rocket 3.6 17:12:16 10° NNE 17:17:28 64° ESE 17:22:41 10° S
SL-8 Rocket 4.4 17:13:29 10° NNW 17:19:36 68° W 17:25:41 10° S
Cosmos 2251 Rocket 4.3 17:15:46 10° NNW 17:21:01 59° WSW 17:26:13 10° S
AQUARIUS 4.1 17:23:08 10° SSE 17:27:37 76° ENE 17:32:07 10° N
NOSS 2-1 (E) 3.8 17:25:00 10° S 17:28:38 41° ESE 17:32:06 13° NE
Cosmos 1484 Rocket 3.6 17:26:08 10° SE 17:29:19 27° ENE 17:32:31 10° NNE
Cosmos 2366 rocket 4.3 17:26:55 10° N 17:33:16 74° W 17:39:30 10° S
CZ-4 R/B 4.4 17:31:33 10° SSE 17:35:38 62° ENE 17:39:45 10° N
Cosmos 1975 2.9 17:31:48 10° N 17:35:52 83° W 17:39:53 10° S
Cosmos 1238 Rocket 4.0 17:35:03 10° SW 17:37:44 31° WNW 17:40:38 10° NNW
CZ-4 R/B 2.3 17:38:16 10° S 17:42:20 53° W 17:46:24 10° NNW
Meteor 2-21 4.4 17:37:30 10° N 17:43:42 75° E 17:49:48 10° SSE
Abrixas 2.3 17:41:50 10° NW 17:44:46 69° NNE 17:46:38 20° ESE
MONITOR-E 4.2 17:43:39 10° SSE 17:46:47 57° ENE 17:49:56 10° N
USA 234 3.4 17:40:41 11° NE 17:46:56 74° NW 17:53:26 10° WSW
Meteor 1-13 Rocket 4.2 17:45:00 10° S 17:50:39 74° E 17:56:29 10° NNE
COSMO-SKYMED 1 2.7 17:47:20 10° NNE 17:51:35 50° E 17:55:47 10° S
Cosmos 2369 Rocket 4.0 17:49:17 10° ESE 17:50:46 13° ESE 17:50:46 13° ESE
MSX 3.8 17:46:30 10° SSE 17:52:14 85° ENE 17:58:01 10° NNW
CZ-2C R/B 3.2 17:48:54 10° S 17:53:50 59° W 17:58:55 10° NNW
CORIOLIS 4.5 17:49:34 10° S 17:54:57 70° WSW 18:00:21 10° NNW
Meteor 2-4 Rocket 3.9 17:51:02 10° SSE 17:56:06 45° E 18:01:11 10° NNE
COSMOS 2441 4.3 17:52:05 10° SSE 17:56:57 81° ENE 18:01:52 10° N
Cosmos 2056 Rocket 3.8 17:55:53 10° S 18:00:59 46° ESE 18:04:14 21° NE
Cosmos 407 Rocket 4.2 17:56:39 10° N 18:01:04 28° ENE 18:02:22 25° E
BREEZE-M DEB (TANK) 4.4 17:55:53 10° WNW 18:01:25 26° N 18:03:26 19° NE
Cosmos 921 Rocket 3.1 17:57:15 10° SSW 18:01:30 77° WNW 18:05:48 10° NNE
Meteor 2-14 Rocket 4.4 17:55:33 10° N 18:01:43 77° E 18:07:51 10° SSE
Cosmos 1025 Rocket 3.2 17:57:37 10° S 18:01:51 51° E 18:05:09 16° NNE
NOSS 3-4 (A) 4.0 17:55:19 10° NNW 18:02:08 51° NE 18:09:19 10° SE
NOSS 3-4 (C) 4.0 17:55:25 10° NNW 18:02:13 51° NE 18:09:25 10° SE
NOAA 12 4.4 18:01:32 10° SE 18:06:26 41° ENE 18:11:19 10° N
Cosmos 1821 Rocket 3.9 18:00:45 10° N 18:06:48 63° E 18:12:50 10° SSE
Timation 2 Rocket 4.4 18:02:23 10° NNW 18:09:15 75° WSW 18:16:06 10° SSE
BREEZE M DEB (TANK) 3.7 18:09:05 10° NW 18:12:47 49° NNE 18:18:05 23° E
Cosmos 1624 Rocket 3.9 18:08:50 10° S 18:13:58 66° ESE 18:17:11 23° NNE
YAOGAN 1 4.3 18:11:01 10° SSW 18:14:57 34° W 18:18:54 10° NNW
Cosmos 1605 Rocket 4.2 18:11:30 10° N 18:17:27 43° ENE 18:23:16 10° SSE
Cosmos 1371 Rocket 4.0 18:14:19 10° SSW 18:19:40 88° W 18:23:47 18° NNE
Cosmos 1666 2.6 18:25:37 10° N 18:29:30 86° E 18:33:23 10° S
METEOR-M 4.1 18:24:28 10° SSE 18:29:41 57° ENE 18:34:55 10° N
Cosmos 2278 Rocket 4.4 18:27:33 10° W 18:31:42 21° NW 18:35:53 10° N
GEOS 3 Rocket 3.6 18:41:16 56° ENE 18:41:23 56° NE 18:46:24 10° NNW
BREEZE M DEB (TANK) 2.9 18:34:58 10° WSW 18:41:36 49° NNW 18:41:52 48° NNW
Delta 2 Rocket 4.0 18:39:11 10° WSW 18:42:43 42° S 18:42:43 42° S
Tiangong 1 3.3 18:44:22 10° WNW 18:45:43 22° WNW 18:45:43 22° WNW
CZ-3B DEB 4.0 18:44:35 10° WNW 18:49:35 33° N 18:53:54 25° NE
Cosmos 1452 Rocket 4.1 18:44:53 10° S 18:48:37 42° SSE 18:48:37 42° SSE
Cosmos 1833 Rocket 3.9 18:44:45 10° NW 18:50:01 41° WSW 18:55:15 10° S
Cosmos 1190 Rocket 3.9 18:46:52 10° NNW 18:52:08 84° WSW 18:56:37 14° SSE
Cosmos 1727 Rocket 3.8 18:48:06 10° S 18:54:16 70° E 18:55:42 52° NNE
Cosmos 1892 Rocket 3.7 18:50:12 10° SSW 18:54:29 71° W 18:54:29 71° W
Meteor 1-28 Rocket 4.3 18:56:17 41° WNW 18:56:34 42° WNW 19:00:09 10° SW
Cosmos 2082 Rocket 4.0 18:52:25 10° NW 18:57:18 30° WSW 19:02:12 10° SSW
Cosmos 1726 Rocket 4.1 18:58:08 10° NNW 19:02:31 57° W 19:06:53 10° S
Okean 2 4.4 19:02:26 10° SSW 19:06:21 44° W 19:06:21 44° W
Cosmos 2369 Rocket 3.3 19:29:20 10° SSW 19:32:38 37° SSW 19:32:38 37° SSW
